www.pogodaiklimat.ru

Погода и климат >> Архив погоды >> Россия >> Чукотка >> Билибино


ПОГОДА в Билибино

  • Прогноз погоды в Билибино
  • Монитор погоды в Билибино

АРХИВ ПОГОДЫ в Билибино

Время (UTC), дата Ветер
(напр.,м/с)
 
Видим.   Явления Облачность Т
(С)
Тd
(С)
f
(%)
Тe
(С)
Тes
(С)
Комфортность P
(гПа)
Po
(гПа)
Тmin
(С)
Tmax
(С)
R
(мм)
R24
(мм)
S
(см)
12 11.02 штиль 0
{5}
20 км ясно -41.2 -45.1 66 -41 -41 опасность
обморожения
1021.5 980.4
15 11.02 СВ 2
{6}
20 км ясно -40.9 -45.1 64 -50 -50 опасность
обморожения
1018.5 977.5
18 11.02 СВ 1
{4}
20 км ясно -44.8 -48.9 63 -51 -51 опасность
обморожения
1018.5 976.8
21 11.02 штиль 0
{3}
20 км ясно -47.0 -51.4 60 -47 -47 опасность
обморожения
1017.1 975.1 -47.1 31
00 12.02 штиль 0
{2}
20 км ясно -43.2 -47.4 63 -43 -43 опасность
обморожения
1016.5 975.3
03 12.02 штиль 0
{1}
20 км ясно -41.5 -46.3 59 -42 -41 опасность
обморожения
1016.4 975.3
06 12.02 штиль 0
{1}
20 км ясно -47.0 -51.4 60 -47 -47 опасность
обморожения
1018.7 976.6
09 12.02 штиль 0
{1}
20 км ясно -48.3 -52.4 62 -48 -48 опасность
обморожения
1020.1 977.8 -41.2
12 12.02 штиль 0
{1}
20 км ясно -47.5 -52.4 57 -48 -48 опасность
обморожения
1021.7 979.4
15 12.02 штиль 0
{1}
20 км ясно -48.8 -53.5 58 -49 -49 опасность
обморожения
1022.8 980.2
18 12.02 штиль 0
{1}
20 км ясно -48.8 -53.5 58 -49 -49 опасность
обморожения
1023.9 981.3
21 12.02 штиль 0 20 км ясно -49.1 -53.5 60 -49 -49 опасность
обморожения
1024.9 982.3 -49.4 31
00 13.02 штиль 0
{2}
20 км 3/0
[Cs]
-42.7 -47.5 59 -43 -42 опасность
обморожения
1025.1 983.5
03 13.02 СВ 1
{2}
50 км 3/0
[Ci fib]
-41.2 -46.6 56 -47 -46 опасность
обморожения
1025.8 984.5
06 13.02 штиль 0
{2}
20 км 1/0
[Ci fib]
-47.1 -51.4 61 -47 -47 опасность
обморожения
1028.3 985.8
09 13.02 штиль 0
{1}
20 км ясно -47.5 -52.4 57 -48 -48 опасность
обморожения
1030.9 988.2 -40.9
12 13.02 штиль 0
{2}
20 км ясно -47.6 -52.4 57 -48 -48 опасность
обморожения
1032.4 989.5
15 13.02 С 1
{3}
20 км ясно -44.0 -48.2 63 -50 -50 опасность
обморожения
1031.8 989.8
18 13.02 СВ 3
{7}
20 км ясно -41.8 -46.3 61 -54 -54 опасность
обморожения
1030.7 989.0
21 13.02 СВ 5
{9}
50 км позёмок ясно -41.5 -46.3 59 -57 -57 опасность
обморожения
1029.1 987.5 -48.2 31
00 14.02 СВ 5
{9}
50 км {метель} ясно -39.4 -44.3 59 -54 -54 опасность
обморожения
1026.8 985.8
03 14.02 СВ 6
{9}
50 км ясно -37.8 -42.6 61 -54 -53 опасность
обморожения
1023.8 983.1
06 14.02 СВ 2
{10}
20 км ясно -38.7 -42.7 66 -48 -48 опасность
обморожения
1022.8 982.0
09 14.02 СВ 4
{7}
20 км ясно -38.8 -43.1 64 -52 -52 опасность
обморожения
1020.4 979.7 -37.1
12 14.02 СВ 2
{8}
20 км 3/0
[Ci fib]
-37.0 -41.1 65 -46 -46 опасность
обморожения
1017.9 977.6
15 14.02 СВ 3
{9}
20 км 3/0
[Ci fib]
-36.8 -41.1 64 -48 -48 опасность
обморожения
1015.4 975.2
18 14.02 СВ 4
{9}
20 км 10/0
[Ci sp]
-35.5 -39.7 65 -48 -48 опасность
обморожения
1012.5 972.6
21 14.02 СВ 3
{6}
50 км 10/0
[Ac und]
-32.7 -37.1 65 -43 -43 опасность
обморожения
1009.4 970.1 -40.2 31
00 15.02 В 2
{9}
50 км 10/0
[Ac und]
-29.4 -34.7 60 -37 -37 опасность
обморожения
1005.5 967.0
03 15.02 С 1
{2}
50 км 9/3 600 м
[Sc Ac As]
-27.7 -33.1 60 -32 -31 опасность
обморожения
1003.8 965.5
06 15.02 штиль 0
{3}
20 км 10/3 600 м
[Sc Ac As Cs]
-28.0 -32.6 65 -28 -28 1002.8 964.5
09 15.02 штиль 0
{2}
20 км 9/3 600 м
[Sc Ac trans]
-30.4 -34.1 70 -30 -30 1002.7 964.2 -27.0
12 15.02 СВ 1
{2}
20 км 3/3 600 м
[Sc]
-33.6 -37.2 70 -38 -38 опасность
обморожения
1003.2 964.0
15 15.02 СВ 2
{4}
20 км 10/10 600 м
[Sc]
-25.0 -28.8 71 -32 -32 опасность
обморожения
999.8 962.1
18 15.02 Ю 1
{4}
20 км 10/10 600 м
[Sc]
-28.0 -31.8 70 -32 -32 опасность
обморожения
1000.1 961.9
21 15.02 Ю 2
{3}
50 км 10/10 600 м
[Sc]
-27.5 -31.3 70 -35 -35 опасность
обморожения
999.3 961.2 -34.4 31
00 16.02 ЮЗ 1
{3}
50 км в посл. час дождь 8/8 1000 м
[Sc]
-25.5 -30.2 65 -29 -29 997.9 960.3
03 16.02 Ю 1
{3}
50 км {снег} 8/3 600 м
[Sc Ci fib]
-24.3 -29.8 60 -28 -28 993.1 958.7
06 16.02 Ю 1
{3}
20 км {снег} 10/3 600 м
[Sc Ac As]
-25.9 -29.8 70 -30 -30 994.8 957.2
09 16.02 ЮВ 1
{2}
4000 м слаб. снег 10/0
[As op]
-25.8 -29.7 70 -29 -29 993.4 955.8 -24.3 0.4
12 16.02 Ю 2
{3}
4000 м слаб. снег 10/0
[As op]
-26.6 -30.4 70 -34 -34 опасность
обморожения
992.2 954.5
15 16.02 Ю 2
{3}
4000 м слаб. снег 10/0
[As op]
-26.9 -30.7 70 -34 -34 опасность
обморожения
991.4 953.7
18 16.02 С 1
{4}
20 км {снег} 4/0
[Ac trans]
-32.6 -36.1 71 -37 -37 опасность
обморожения
993.5 954.8
21 16.02 Ю 2
{4}
20 км снежные кристаллы 10/3 600 м
[Sc Cs]
-30.8 -35.3 65 -38 -38 опасность
обморожения
994.2 955.8 -32.7 1 33
00 17.02 Ю 1
{3}
20 км снежные кристаллы 10/8 600 м
[Sc Cs]
-29.4 -33.9 65 -33 -33 опасность
обморожения
995.8 957.7 -33.4
03 17.02 ЮЗ 3
{4}
20 км снежные кристаллы 10/8 600 м
[Sc Ac trans Cs]
-28.6 -33.9 60 -38 -38 опасность
обморожения
996.9 958.7
06 17.02 З 2
{4}
50 км {снег} 4/3 600 м
[Sc Ac trans Ci fib]
-29.8 -35.1 60 -37 -37 опасность
обморожения
999.4 961.0
09 17.02 ЮЗ 2
{4}
20 км 8/0
[Ac trans Cs]
-28.8 -34.1 60 -36 -36 опасность
обморожения
1001.5 963.1 -28.3 0.0
12 17.02 ЮЗ 2
{5}
10 км снежные кристаллы 10/0
[Ac trans Cs]
-28.3 -33.6 60 -36 -36 опасность
обморожения
1003.0 964.7
15 17.02 ЮЗ 2
{4}
10 км снежные кристаллы 10/0
[Ac trans Cs]
-28.2 -32.8 65 -35 -35 опасность
обморожения
1004.2 965.9
18 17.02 З 2
{4}
10 км снежные кристаллы 10/0
[Ac trans Cs]
-28.1 -33.4 60 -35 -35 опасность
обморожения
1005.3 967.0
21 17.02 З 1
{4}
50 км {снег} 10/0
[Ac As Cs]
-28.2 -33.6 60 -32 -32 опасность
обморожения
1007.2 968.8 -32.4 0.4 33
00 18.02 ЮЗ 1
{3}
50 км {снег} 10/0
[Ac trans Cs]
-28.0 -33.4 60 -32 -31 опасность
обморожения
1007.9 969.5
03 18.02 З 1
{3}
50 км 9/0
[Ac As Ci fib]
-27.4 -33.7 55 -31 -31 опасность
обморожения
1008.5 970.2
06 18.02 Ю 1
{3}
10 км снежные кристаллы 10/0
[Ac As Cs]
-28.3 -32.8 65 -32 -32 опасность
обморожения
1010.4 971.8

 

Местоположение метеостанции Билибино (Чукотка, Россия): широта 68.05 долгота 166.40 высота над уровнем моря 280 м.

В архиве по умолчанию представлена погода в Билибино за последнюю неделю. Архивные данные за месяц целиком и за предыдущие месяцы, начиная с января 2011 года, Вы можете получить, выбрав интересующий диапазон дат из раскрывающегося списка и нажав кнопку "Ввод!".


*Определитесь, кто Вы:
робот инопланетянин человек

Внимание! Время в таблицах - всемирное. Для получения местного времени необходимо прибавить поправку, которая равна 12 ч.

Смотрите также архив погоды в соседних городах и на ближайших метеорологических станциях:

Погода в Островном (Чукотка, Россия) (96 км)
Погода в Илирнее (Чукотка, Россия) (109 км)
Погода в Раучуе (Чукотка, Россия) (161 км)
Погода в Баимке (Чукотка, Россия) (194 км)
Погода в Чауне (Чукотка, Россия) (198 км)
Погода в Анюйске (Чукотка, Россия) (205 км)
Погода на Айон Острове (Чукотка, Россия) (217 км)
Погода в Константиновской (Чукотка, Россия) (220 км)
Погода в Черском (Якутия, Россия) (222 км)
Погода в Певеке (Чукотка, Россия) (238 км)

Пояснения к столбцам:

Ветер - указаны скорость ветра в м/с - средняя за 10 мин, порывы в срок и между сроками (в фигурных скобках) и направление, откуда дует ветер: С - северный, СВ - северо-восточный, В - восточный, ЮВ - юго-восточный, Ю - южный, ЮЗ - юго-западный, З - западный, СЗ - северо-западный.
Видимость - горизонтальная дальность видимости в метрах или километрах. При видимости от 1 до 10 км при отсутствии осадков обычно наблюдается дымка, при ухудшении видимости до 1 км и менее - туман. В сухую погоду видимость может ухудшаться дымом, пылью или мглою.
Явления - указаны атмосферные явления, наблюдавшиеся в срок или в последний час перед сроком; фигурными скобками обозначены явления, наблюдавшиеся между сроками (за 1-3 часа до срока); квадратными скобками обозначены град или гололедные отложения с указанием их диаметра в мм.
Облачность - указаны через наклонную черту общая и нижняя облачность в баллах и высота нижней границы облаков в метрах; квадратными скобками обозначены формы облаков: Ci - перистые, Cs - перисто-слоистые, Cc - перисто-кучевые, Ac - высококучевые, As - высокослоистые, Sc - слоисто-кучевые, Ns - слоисто-дождевые, Cu - кучевые, Cb - кучево-дождевые. Подробнее классификацию облаков см. в Атласе облаков (PDF).
T - Температура воздуха - температура, измеренная на высоте 2 м над землей.
Td - Температура точки росы - температура, при понижении до которой содержащийся в воздухе водяной пар достигнет насыщения.
f - Относительная влажность воздуха - влажноcть воздуха, измеренная на высоте 2 м над землей.
Te - Эффективная температура - температура, которую ощущает одетый по сезону человек в тени. Характеристика душности погоды. При расчете учитывается влияние влажности воздуха и скорости ветра на теплоощущения человека.
Tes - Эффективная температура на солнце - температура, которую ощущает человек, с поправкой на солнечный нагрев. Характеристика знойности погоды. Зависит от высоты солнца над горизонтом, облачности и скорости ветра. Ночью, в пасмурную погоду, а также при ветре 12 м/с и более поправка равна нулю.
P - Атмосферное давление - приведенное к уровню моря атмосферное давление.
Po - Атмосферное давление - измеренное на уровне метеостанции атмосферное давление.
Tmin - Минимальная температура - минимум температуры воздуха на высоте 2 м над землей.
Tmax - Максимальная температура - максимум температуры воздуха на высоте 2 м над землей.
R - Количество осадков - Количество выпавших осадков за период времени, мм. При наведении курсора мыши на число - период времени, за который выпало указанное количество осадков.
R24 - Количество осадков - Количество выпавших осадков за 24 часа, мм.
S - Снежный покров - Высота снежного покрова, см. При наведении курсора мыши на число - состояние снежного покрова и степень покрытия местности в баллах.